Location: Castelnau
(43.6639°N, 0.8431°W)
Time: 21:27:45
(UTC+00:00)

Cosmos 909 Rocket - Pass Details

Date: 13 January 2026
Orbit: 992 x 2087 km, 65.9° (Epoch: 11 February)

Event Time Altitude Azimuth Distance (km) Brightness Sun altitude
Exits shadow 05:34:59 35° 300° (WNW) 1,629 4.7 -21.2°
Maximum altitude 05:37:32 54° 243° (WSW) 1,303 4.3 -20.7°
Drops below altitude 10° 05:44:44 10° 169° (SSE) 3,223 7.0 -19.4°
Sets 05:47:50 0° 165° (SSE) 4,337 7.8 -18.9°
